Regional Weather Roundup
Issued by NWS

Home | Current Version | Previous Version | Text Only | Print | Product List | Glossary Off
Versions: 1 2 3 4 5 6 7 8 9 10 11 12 13 14 15 16 17 18 19 20 21 22 23 24 25 26 27 28 29 30 31 32 33 34 35 36 37 38 39 40 41 42 43 44 45 46 47 48 49 50

000
ASUS43 KFSD 261310
RWRSD

WEATHER ROUNDUP FOR SOUTH DAKOTA
NATIONAL WEATHER SERVICE SIOUX FALLS SD
800 AM CDT TUE JUL 26 2016

NOTE: "FAIR" INDICATES FEW OR NO CLOUDS BELOW 12,000 FEET WITH NO
SIGNIFICANT WEATHER AND/OR OBSTRUCTIONS TO VISIBILITY.


SDZ001>005-009-010-012>017-261400-
NORTHWEST AND NORTH CENTRAL SOUTH DAKOTA

CITY           SKY/WX    TMP DP  RH WIND       PRES   REMARKS
BUFFALO          N/A     66  62  87 N20       30.04F
FAITH            N/A     72  62  71 W17G26    30.02R
MOBRIDGE       SUNNY     76  65  68 SE8       29.94R
$$

SDZ012>016-024>037-041>051-057-063-072>074-261400-
SOUTHWEST AND SOUTH CENTRAL SOUTH DAKOTA

CITY           SKY/WX    TMP DP  RH WIND       PRES   REMARKS
RAPID CTY ARPT PTSUNNY   71  56  58 N26G41    30.05R
PIERRE         SUNNY     75  64  68 SE6       29.97R
CUSTER         SUNNY     60  54  80 CALM      30.14S
ELLSWORTH AFB  MOSUNNY   71  58  62 N25G32    30.06R
PHILIP         MOSUNNY   75  65  70 S12       29.97R
PINE RIDGE     SUNNY     70  65  84 S25G38    29.99F
WINNER         FAIR      74  61  63 S16       30.02R
$$

SDZ004>011-016>023-039-040-261400-
NORTHEAST SOUTH DAKOTA

CITY           SKY/WX    TMP DP  RH WIND       PRES   REMARKS
ABERDEEN       MOSUNNY   68  61  78 SE8       30.00F
WATERTOWN      SUNNY     73  63  70 VRB3      30.05R
BROOKINGS      SUNNY     69  64  84 S6        30.05F
SISSETON         N/A     76  62  62 VRB6      29.98R
$$

SDZ017-020-022-023-036>040-048>070-261400-
SOUTHEAST SOUTH DAKOTA

CITY           SKY/WX    TMP DP  RH WIND       PRES   REMARKS
SIOUX FALLS    MOSUNNY   73  64  73 S9        30.07R
HURON          SUNNY     69  62  78 SE8       30.01S
CHAMBERLAIN    SUNNY     75  65  69 S10       30.00S
MITCHELL       SUNNY     70  63  78 S7        30.03S
YANKTON        SUNNY     70  63  78 SE3       30.05F
$$

ABBREVIATIONS USED IN REMARKS
   TC - TEMPERATURE IN CELSIUS
  WCI - WIND CHILL INDEX
   HX - HEAT INDEX
  VSB - VISIBILITY





USA.gov is the U.S. government's official web portal to all federal, state and local government web resources and services.